Location: Unspecified
(0.0000°N, 0.0000°E)
Time: 12:08:13
(UTC+00:00)

Hubble Space Telescope - Pass Details

Date: 03 December 2021
Orbit: 534 x 538 km, 28.5° (Epoch: 07 December)

Event Time Altitude Azimuth Distance (km) Brightness Sun altitude
Rises 18:53:36 0° 211° (SSW) 2,675 5.3 -14.7°
Reaches altitude 10° 18:56:47 10° 185° (S) 1,782 3.8 -15.4°
Maximum altitude 18:59:00 14° 153° (SSE) 1,536 3.0 -15.9°
Enters shadow 19:00:39 12° 127° (SE) 1,675 3.0 -16.3°
